TimeMST,TemperatureF,Dew PointF,Humidity,Sea Level PressureIn,VisibilityMPH,Wind Direction,Wind SpeedMPH,Gust SpeedMPH,PrecipitationIn,Events,Conditions,WindDirDegrees,DateUTC
12:15 AM,26.2,16.9,68,29.98,10.0,SE,4.6,-,N/A,,Clear,130,2012-12-08 07:15:00
12:35 AM,27.7,18.5,68,29.98,10.0,Calm,Calm,-,N/A,,Clear,0,2012-12-08 07:35:00
12:55 AM,23.7,15.6,71,29.98,10.0,Calm,Calm,-,N/A,,Clear,0,2012-12-08 07:55:00
1:15 AM,27.0,19.2,73,29.98,10.0,South,4.6,-,N/A,,Clear,190,2012-12-08 08:15:00
1:35 AM,23.9,16.2,72,29.97,10.0,Calm,Calm,-,N/A,,Clear,0,2012-12-08 08:35:00
1:55 AM,21.9,14.4,73,29.97,10.0,South,3.5,-,N/A,,Clear,190,2012-12-08 08:55:00
2:15 AM,19.0,11.3,72,29.97,10.0,Calm,Calm,-,N/A,,Clear,0,2012-12-08 09:15:00
2:35 AM,25.3,19.4,78,29.97,10.0,Calm,Calm,-,N/A,,Clear,0,2012-12-08 09:35:00
2:55 AM,19.6,14.4,80,29.97,10.0,Calm,Calm,-,N/A,,Clear,0,2012-12-08 09:55:00
3:15 AM,20.3,12.7,73,29.96,10.0,Calm,Calm,-,N/A,,Clear,0,2012-12-08 10:15:00
3:35 AM,24.4,19.2,81,29.96,10.0,Calm,Calm,-,N/A,,Clear,0,2012-12-08 10:35:00
3:55 AM,23.7,16.7,75,29.96,10.0,SSW,3.5,-,N/A,,Clear,200,2012-12-08 10:55:00
4:15 AM,20.8,14.0,75,29.96,10.0,Calm,Calm,-,N/A,,Clear,0,2012-12-08 11:15:00
4:55 AM,18.3,13.8,83,29.96,10.0,NW,3.5,-,N/A,,Clear,310,2012-12-08 11:55:00
5:15 AM,15.1,9.5,79,29.96,10.0,Calm,Calm,-,N/A,,Clear,0,2012-12-08 12:15:00
5:35 AM,20.8,15.8,81,29.96,10.0,Calm,Calm,-,N/A,,Clear,0,2012-12-08 12:35:00
5:55 AM,15.4,10.9,82,29.96,10.0,North,3.5,-,N/A,,Clear,350,2012-12-08 12:55:00
6:15 AM,15.4,10.0,79,29.96,10.0,Calm,Calm,-,N/A,,Clear,0,2012-12-08 13:15:00
6:35 AM,16.7,12.4,83,29.96,10.0,NNE,4.6,-,N/A,,Clear,30,2012-12-08 13:35:00
6:55 AM,15.8,11.1,82,29.96,10.0,North,5.8,-,N/A,,Clear,10,2012-12-08 13:55:00
7:15 AM,17.8,13.1,82,29.96,10.0,Calm,Calm,-,N/A,,Clear,0,2012-12-08 14:15:00
7:35 AM,24.8,17.8,75,29.96,10.0,SW,4.6,-,N/A,,Clear,230,2012-12-08 14:35:00
7:55 AM,28.9,20.7,71,29.97,10.0,West,5.8,-,N/A,,Clear,280,2012-12-08 14:55:00
8:15 AM,39.4,25.7,58,29.96,10.0,West,12.7,-,N/A,,Clear,270,2012-12-08 15:15:00
8:35 AM,41.7,25.7,53,29.96,10.0,West,11.5,-,N/A,,Clear,270,2012-12-08 15:35:00
8:55 AM,43.5,25.7,50,29.97,10.0,West,13.8,-,N/A,,Clear,260,2012-12-08 15:55:00
9:15 AM,45.5,25.3,45,29.97,10.0,West,19.6,-,N/A,,Clear,260,2012-12-08 16:15:00
9:35 AM,47.3,25.5,43,29.97,10.0,WSW,15.0,-,N/A,,Clear,250,2012-12-08 16:35:00
9:55 AM,49.1,24.4,38,29.97,10.0,West,20.7,25.3,N/A,,Clear,260,2012-12-08 16:55:00
10:15 AM,50.4,23.9,36,29.97,10.0,West,18.4,24.2,N/A,,Clear,260,2012-12-08 17:15:00
10:35 AM,51.8,23.7,33,29.96,10.0,West,15.0,23.0,N/A,,Clear,280,2012-12-08 17:35:00
10:55 AM,52.2,23.5,33,29.96,10.0,WNW,19.6,-,N/A,,Clear,290,2012-12-08 17:55:00
11:15 AM,52.9,23.2,31,29.95,10.0,West,16.1,23.0,N/A,,Clear,270,2012-12-08 18:15:00
11:35 AM,53.4,23.4,31,29.93,10.0,WNW,17.3,21.9,N/A,,Clear,290,2012-12-08 18:35:00
11:55 AM,53.6,23.0,30,29.92,10.0,West,19.6,24.2,N/A,,Clear,280,2012-12-08 18:55:00
12:15 PM,53.6,23.0,30,29.90,10.0,West,18.4,21.9,N/A,,Clear,280,2012-12-08 19:15:00
12:55 PM,53.8,23.4,31,29.88,10.0,WNW,18.4,27.6,N/A,,Clear,290,2012-12-08 19:55:00
1:15 PM,54.5,23.0,29,29.87,10.0,West,20.7,25.3,N/A,,Clear,280,2012-12-08 20:15:00
1:35 PM,54.9,21.6,27,29.86,10.0,West,18.4,29.9,N/A,,Clear,270,2012-12-08 20:35:00
1:55 PM,55.4,19.6,25,29.86,7.0,West,26.5,31.1,N/A,,Clear,270,2012-12-08 20:55:00
2:15 PM,52.5,19.4,27,29.85,10.0,West,25.3,34.5,N/A,,Clear,270,2012-12-08 21:15:00
2:35 PM,55.4,21.4,27,29.84,10.0,West,26.5,35.7,N/A,,Clear,270,2012-12-08 21:35:00
2:55 PM,55.2,21.2,27,29.84,10.0,West,29.9,39.1,N/A,,Clear,280,2012-12-08 21:55:00
3:15 PM,55.0,21.4,27,29.84,10.0,West,26.5,34.5,N/A,,Clear,260,2012-12-08 22:15:00
3:35 PM,55.4,20.8,26,29.85,10.0,West,23.0,-,N/A,,Clear,280,2012-12-08 22:35:00
3:55 PM,55.2,16.0,21,29.85,10.0,West,21.9,33.4,N/A,,Clear,260,2012-12-08 22:55:00
4:15 PM,54.3,16.0,22,29.86,10.0,West,16.1,25.3,N/A,,Clear,280,2012-12-08 23:15:00
4:35 PM,52.7,16.3,24,29.87,10.0,West,13.8,-,N/A,,Clear,280,2012-12-08 23:35:00
4:55 PM,49.6,16.3,27,29.87,10.0,WNW,8.1,-,N/A,,Clear,300,2012-12-08 23:55:00
5:15 PM,46.9,16.5,30,29.88,10.0,NW,6.9,-,N/A,,Clear,320,2012-12-09 00:15:00
5:35 PM,48.4,16.7,28,29.89,10.0,Calm,Calm,-,N/A,,Clear,0,2012-12-09 00:35:00
5:55 PM,45.9,15.8,30,29.89,10.0,Calm,Calm,-,N/A,,Clear,0,2012-12-09 00:55:00
6:15 PM,45.0,15.6,31,29.89,10.0,Calm,Calm,-,N/A,,Clear,0,2012-12-09 01:15:00
6:55 PM,41.5,15.4,35,29.90,10.0,NW,5.8,-,N/A,,Clear,320,2012-12-09 01:55:00
7:15 PM,40.3,15.1,36,29.90,10.0,NW,4.6,-,N/A,,Clear,310,2012-12-09 02:15:00
7:35 PM,33.8,11.8,40,29.90,10.0,SSE,3.5,-,N/A,,Clear,160,2012-12-09 02:35:00
7:55 PM,33.1,13.8,45,29.90,10.0,Calm,Calm,-,N/A,,Clear,0,2012-12-09 02:55:00
8:15 PM,31.8,12.4,45,29.91,10.0,Calm,Calm,-,N/A,,Clear,0,2012-12-09 03:15:00
8:35 PM,32.2,12.4,44,29.90,10.0,SW,10.4,-,N/A,,Clear,230,2012-12-09 03:35:00
8:55 PM,36.9,13.1,38,29.90,10.0,SW,13.8,-,N/A,,Clear,230,2012-12-09 03:55:00
9:15 PM,37.0,12.9,37,29.90,10.0,WSW,16.1,-,N/A,,Clear,240,2012-12-09 04:15:00
9:35 PM,40.8,12.2,31,29.90,10.0,WSW,13.8,-,N/A,,Clear,240,2012-12-09 04:35:00
9:55 PM,37.6,11.3,34,29.91,10.0,West,11.5,-,N/A,,Clear,260,2012-12-09 04:55:00
10:15 PM,37.2,11.1,34,29.91,10.0,West,10.4,-,N/A,,Clear,260,2012-12-09 05:15:00
10:35 PM,37.6,10.9,33,29.91,10.0,West,12.7,-,N/A,,Clear,260,2012-12-09 05:35:00
10:55 PM,38.7,10.9,32,29.92,10.0,WSW,10.4,-,N/A,,Clear,250,2012-12-09 05:55:00
11:15 PM,35.6,10.2,35,29.92,10.0,West,10.4,-,N/A,,Clear,270,2012-12-09 06:15:00
11:35 PM,40.1,10.4,30,29.92,10.0,West,10.4,-,N/A,,Clear,280,2012-12-09 06:35:00
11:55 PM,36.9,10.2,33,29.91,10.0,WNW,10.4,-,N/A,,Clear,290,2012-12-09 06:55:00